Weather in Itantsa

Russia / Republic of Buryatia     52°09′24″N   107°29′53″E
temp.,
°C
wind,
m/s
gust,
m/s
humid.,
%
clouds,
%
prec.,
mm/h
press.,
hPa
HPBL,
m
12 august, fri
fri1223:00+11w229315 0.0 101050
02:00+10w229817 0.0 101144
05:00+9wnw119813 0.0 101124
08:00+13wsw138124 0.0 1010423
11:00+20w45446 0.0 10091727
14:00+22wnw55345 0.0 10072098
17:00+22nw333470 0.0 10061898
20:00+15n226326 0.0 100715
13 august, sat
sat1323:00+11n1175100 0.0 100912
02:00+10nnw018215 0.0 101010
05:00+10n118186 0.0 100910
08:00+16ssw0161100 0.0 1008203
11:00+22ssw124589 0.0 10071109
14:00+24sw223594 0.0 10042119
17:00+23nnw2241100 0.0 10041400
20:00+17nne226541 0.0 100418
14 august, sun
sun1423:00+13n227213 0.0 100514
02:00+11n117038 0.0 100513
05:00+10nw117429 0.0 100516
08:00+16wsw115995 0.0 1005247
11:00+23sw23405 0.0 10031615
14:00+25w133372 0.0 10022645
17:00+23n223749 0.0 10031510
20:00+16n116563 0.0 100515
15 august, mon
mon1523:00+12nnw117921 0.0 100611
02:00+11wnw118341 0.0 100711
05:00+10w11905 0.0 100711
08:00+16s11661 0.0 1007211
11:00+23s23434 0.0 10041155
14:00+26s453477 0.0 10022622
17:00+26wsw363498 0.0 10002727
20:00+15nw1185100 0.4 100531
16 august, tue
tue1623:00+12wnw11967 0.2 100715
02:00+10wnw229752 0.2 100841
05:00+10w119599 0.0 100827
08:00+13nne018598 0.0 1008365
11:00+19ese134437 0.0 10061305
14:00+23e3329100 0.0 10032427
17:00+19ne4536100 0.0 1003874
20:00+14nnw2554100 0.1 1005157